• en Suisse
  • Liste des pays
  • À 7 jours
  • Température de l'eau
  • Carte satellitaire
  • Carte météo
  • Widgets météo
  • user-avatar
    Se connecter

    Météo par heure à Kotelno

    Ce jour, 25 Juin, Lundi

    Heure Température Précipitation Vent Pression Humidité
    00:00 +10°C° 0 mm 4 m/s 747 mmHg 95%
    01:00 +10°C° 0 mm 4 m/s 748 mmHg 95%
    02:00 +10°C° 0 mm 4 m/s 748 mmHg 96%
    03:00 +10°C° 0 mm 4 m/s 749 mmHg 94%
    04:00 +10°C° 0 mm 4 m/s 750 mmHg 93%
    05:00 +10°C° 0 mm 4 m/s 750 mmHg 92%
    06:00 +11°C° 0 mm 4 m/s 751 mmHg 88%
    07:00 +11°C° 0 mm 4 m/s 751 mmHg 84%
    08:00 +10°C° 0 mm 5 m/s 752 mmHg 83%
    09:00 +13°C° 0 mm 4 m/s 752 mmHg 75%
    10:00 +14°C° 0 mm 4 m/s 752 mmHg 68%
    11:00 +17°C° 0 mm 4 m/s 753 mmHg 60%
    12:00 +18°C° 0 mm 4 m/s 753 mmHg 56%
    13:00 +19°C° 0 mm 3 m/s 754 mmHg 52%
    14:00 +20°C° 0 mm 3 m/s 754 mmHg 47%
    15:00 +20°C° 0 mm 2 m/s 754 mmHg 51%
    16:00 +20°C° 0 mm 2 m/s 754 mmHg 54%
    17:00 +20°C° 0 mm 2 m/s 754 mmHg 57%
    18:00 +20°C° 0,1 mm 1 m/s 755 mmHg 64%
    19:00 +19°C° 0,1 mm 1 m/s 755 mmHg 71%
    20:00 +16°C° 0,1 mm 1 m/s 755 mmHg 78%
    21:00 +15°C° 0 mm 1 m/s 756 mmHg 83%
    22:00 +14°C° 0 mm 1 m/s 756 mmHg 87%
    23:00 +12°C° 0 mm 1 m/s 756 mmHg 92%

    Demain, 26 Juin, Mardi

    Heure Température Précipitation Vent Pression Humidité
    00:00 +12°C° 0 mm 1 m/s 757 mmHg 92%
    01:00 +12°C° 0 mm 1 m/s 757 mmHg 93%
    02:00 +11°C° 0 mm 1 m/s 757 mmHg 93%
    03:00 +12°C° 0 mm 1 m/s 758 mmHg 92%
    04:00 +12°C° 0 mm 1 m/s 758 mmHg 91%
    05:00 +13°C° 0 mm 1 m/s 758 mmHg 90%
    06:00 +15°C° 0 mm 1 m/s 758 mmHg 82%
    07:00 +18°C° 0 mm 1 m/s 759 mmHg 74%
    08:00 +20°C° 0 mm 1 m/s 759 mmHg 67%
    09:00 +21°C° 0 mm 1 m/s 759 mmHg 61%
    10:00 +21°C° 0 mm 2 m/s 760 mmHg 54%
    11:00 +23°C° 0 mm 2 m/s 760 mmHg 48%
    12:00 +24°C° 0 mm 2 m/s 760 mmHg 47%
    13:00 +24°C° 0 mm 2 m/s 760 mmHg 46%
    14:00 +24°C° 0 mm 2 m/s 760 mmHg 45%
    15:00 +24°C° 0 mm 2 m/s 760 mmHg 46%
    16:00 +24°C° 0 mm 1 m/s 760 mmHg 47%
    17:00 +24°C° 0 mm 1 m/s 760 mmHg 49%
    18:00 +22°C° 0 mm 1 m/s 761 mmHg 56%
    19:00 +21°C° 0 mm 1 m/s 761 mmHg 63%
    20:00 +20°C° 0 mm 1 m/s 761 mmHg 70%
    21:00 +18°C° 0 mm 1 m/s 761 mmHg 73%
    22:00 +15°C° 0 mm 0 m/s 762 mmHg 77%
    23:00 +13°C° 0 mm 0 m/s 762 mmHg 81%

    Après-demain, 27 Juin, Mercredi

    Heure Température Précipitation Vent Pression Humidité
    00:00 +13°C° 0 mm 0 m/s 762 mmHg 82%
    01:00 +13°C° 0 mm 0 m/s 762 mmHg 83%
    02:00 +12°C° 0 mm 0 m/s 762 mmHg 84%
    03:00 +13°C° 0 mm 0 m/s 763 mmHg 83%
    04:00 +13°C° 0 mm 0 m/s 763 mmHg 82%
    05:00 +14°C° 0 mm 0 m/s 763 mmHg 80%
    06:00 +16°C° 0 mm 0 m/s 763 mmHg 73%
    07:00 +20°C° 0 mm 1 m/s 763 mmHg 67%
    08:00 +22°C° 0 mm 1 m/s 763 mmHg 60%
    09:00 +23°C° 0 mm 1 m/s 764 mmHg 55%
    10:00 +24°C° 0 mm 1 m/s 764 mmHg 51%
    11:00 +25°C° 0 mm 2 m/s 764 mmHg 47%
    12:00 +25°C° 0 mm 2 m/s 764 mmHg 46%
    13:00 +25°C° 0 mm 2 m/s 763 mmHg 45%
    14:00 +26°C° 0 mm 2 m/s 763 mmHg 44%
    15:00 +25°C° 0 mm 2 m/s 763 mmHg 46%
    16:00 +25°C° 0 mm 2 m/s 763 mmHg 47%
    17:00 +25°C° 0 mm 2 m/s 763 mmHg 48%
    18:00 +24°C° 0 mm 2 m/s 763 mmHg 56%
    19:00 +22°C° 0 mm 1 m/s 763 mmHg 64%
    20:00 +20°C° 0 mm 1 m/s 763 mmHg 72%
    21:00 +19°C° 0 mm 1 m/s 763 mmHg 75%
    22:00 +16°C° 0 mm 1 m/s 764 mmHg 78%
    23:00 +15°C° 0 mm 1 m/s 764 mmHg 81%

    28 Juin, Jeudi

    Heure Température Précipitation Vent Pression Humidité
    00:00 +14°C° 0 mm 1 m/s 764 mmHg 82%
    01:00 +14°C° 0 mm 1 m/s 764 mmHg 83%
    02:00 +13°C° 0 mm 1 m/s 764 mmHg 83%
    03:00 +14°C° 0 mm 1 m/s 764 mmHg 82%
    04:00 +14°C° 0 mm 1 m/s 764 mmHg 80%
    05:00 +15°C° 0 mm 1 m/s 764 mmHg 78%
    06:00 +18°C° 0 mm 1 m/s 764 mmHg 71%
    07:00 +20°C° 0 mm 1 m/s 764 mmHg 64%
    08:00 +22°C° 0 mm 1 m/s 764 mmHg 57%
    09:00 +23°C° 0 mm 1 m/s 763 mmHg 53%
    10:00 +25°C° 0 mm 1 m/s 763 mmHg 49%
    11:00 +26°C° 0 mm 1 m/s 763 mmHg 46%
    12:00 +27°C° 0 mm 1 m/s 763 mmHg 44%
    13:00 +28°C° 0 mm 1 m/s 762 mmHg 43%
    14:00 +28°C° 0 mm 1 m/s 762 mmHg 41%
    15:00 +28°C° 0 mm 1 m/s 762 mmHg 43%
    16:00 +27°C° 0 mm 1 m/s 761 mmHg 44%
    17:00 +27°C° 0 mm 1 m/s 761 mmHg 46%
    18:00 +25°C° 0 mm 1 m/s 760 mmHg 54%
    19:00 +24°C° 0 mm 1 m/s 760 mmHg 62%
    20:00 +22°C° 0 mm 1 m/s 760 mmHg 70%
    21:00 +21°C° 0 mm 1 m/s 759 mmHg 72%
    22:00 +19°C° 0 mm 1 m/s 759 mmHg 75%
    23:00 +18°C° 0 mm 1 m/s 759 mmHg 77%

    29 Juin, Vendredi

    Heure Température Précipitation Vent Pression Humidité
    00:00 +18°C° 0 mm 1 m/s 759 mmHg 78%
    01:00 +16°C° 0 mm 1 m/s 758 mmHg 79%
    02:00 +16°C° 0 mm 1 m/s 758 mmHg 80%
    03:00 +16°C° 0 mm 2 m/s 757 mmHg 80%
    04:00 +17°C° 0 mm 2 m/s 757 mmHg 79%
    05:00 +17°C° 0 mm 2 m/s 756 mmHg 79%
    06:00 +19°C° 0 mm 3 m/s 755 mmHg 73%
    07:00 +20°C° 0 mm 3 m/s 754 mmHg 67%
    08:00 +22°C° 0 mm 4 m/s 754 mmHg 61%
    09:00 +23°C° 0 mm 4 m/s 753 mmHg 55%
    10:00 +25°C° 0 mm 5 m/s 753 mmHg 49%
    11:00 +25°C° 0 mm 5 m/s 752 mmHg 44%
    12:00 +24°C° 0,1 mm 6 m/s 751 mmHg 47%
    13:00 +24°C° 0,1 mm 6 m/s 751 mmHg 50%
    14:00 +23°C° 0,1 mm 6 m/s 751 mmHg 53%
    15:00 +22°C° 0,2 mm 6 m/s 751 mmHg 53%
    16:00 +21°C° 0,2 mm 6 m/s 751 mmHg 53%
    17:00 +20°C° 0,2 mm 6 m/s 751 mmHg 53%
    18:00 +19°C° 0 mm 5 m/s 751 mmHg 55%
    19:00 +16°C° 0 mm 5 m/s 751 mmHg 57%
    20:00 +15°C° 0 mm 4 m/s 751 mmHg 59%
    21:00 +14°C° 0 mm 4 m/s 751 mmHg 61%
    22:00 +13°C° 0 mm 4 m/s 751 mmHg 62%
    23:00 +12°C° 0 mm 4 m/s 751 mmHg 64%

    30 Juin, Samedi

    Heure Température Précipitation Vent Pression Humidité
    00:00 +12°C° 0 mm 4 m/s 751 mmHg 63%
    01:00 +12°C° 0 mm 5 m/s 751 mmHg 62%
    02:00 +12°C° 0 mm 5 m/s 751 mmHg 61%
    03:00 +12°C° 0 mm 5 m/s 751 mmHg 62%
    04:00 +10°C° 0 mm 6 m/s 751 mmHg 63%
    05:00 +10°C° 0 mm 6 m/s 752 mmHg 64%
    06:00 +11°C° 0 mm 6 m/s 752 mmHg 61%
    07:00 +11°C° 0 mm 6 m/s 752 mmHg 58%
    08:00 +12°C° 0 mm 7 m/s 752 mmHg 55%
    09:00 +12°C° 0 mm 7 m/s 752 mmHg 52%
    10:00 +14°C° 0 mm 7 m/s 753 mmHg 49%
    11:00 +14°C° 0 mm 7 m/s 753 mmHg 47%
    12:00 +15°C° 0 mm 7 m/s 753 mmHg 46%
    13:00 +15°C° 0 mm 7 m/s 753 mmHg 45%
    14:00 +15°C° 0 mm 6 m/s 753 mmHg 43%
    15:00 +15°C° 0 mm 6 m/s 754 mmHg 44%
    16:00 +15°C° 0 mm 6 m/s 754 mmHg 44%
    17:00 +15°C° 0 mm 5 m/s 754 mmHg 45%
    18:00 +14°C° 0 mm 5 m/s 754 mmHg 49%
    19:00 +13°C° 0 mm 4 m/s 754 mmHg 54%
    20:00 +12°C° 0 mm 3 m/s 755 mmHg 58%
    21:00 +11°C° 0 mm 3 m/s 755 mmHg 61%
    22:00 +10°C° 0 mm 3 m/s 755 mmHg 64%
    23:00 +8°C° 0 mm 4 m/s 756 mmHg 67%
    Voir plus